QPF
0.00 0.00 0.00 0.00 0.00 0.00 0.00 0.00 0.00 0.00 0.00 0.00 0.00 0.00 0.00 0.00 0.00 0.00 0.00 0.00 0.00 0.00 0.00 0.00 0.00 0.00 0.00 0.00 0.00 0.00 0.00 0.00 0.00 0.00 0.00 0.00 0.00 0.00 0.00 0.00 0.00 0.00 0.00 0.00 0.00
0.00 0.00 0.00 0.00 0.00 0.00 0.00 0.00 0.00 0.00 0.00 0.00 0.00 0.00 0.00 0.00 0.00 0.00 0.00 0.00 0.00 0.00 0.00 0.00 0.00 0.00 0.00 0.00 0.00 0.00 0.00 0.00 0.00 0.00 0.00 0.00 0.00 0.00 0.00 0.00 0.00 0.00 0.00 0.00 0.00
0.00 0.00 0.00 0.00 0.00 0.00 0.00 0.00 0.00 0.00 0.00 0.00 0.00 0.00 0.00 0.00 0.00 0.00 0.00 0.00 0.00 0.00 0.00 0.00 0.00 0.00 0.00 0.00 0.00 0.00 0.00 0.00 0.00 0.00 0.00 0.00 0.00 0.00 0.00 0.00 0.00 0.00 0.00 0.00 0.00
0.00 0.00 0.00 0.00 0.00 0.00 0.00 0.00 0.00 0.00 0.00 0.00 0.00 0.00 0.00 0.00 0.00 0.00 0.00 0.00 0.00 0.00 0.00 0.00 0.00 0.00 0.00 0.00 0.00 0.00 0.00 0.00 0.00 0.00 0.00 0.00 0.00 0.00 0.00 0.00 0.00 0.00 0.00 0.00 0.00
0.00 0.00 0.00 0.00 0.00 0.00 0.00 0.00 0.00 0.00 0.00 0.00 0.00 0.00 0.00 0.00 0.00 0.00 0.00 0.00 0.00 0.00 0.00 0.00 0.00 0.00 0.00 0.00 0.00 0.00 0.00 0.00 0.00 0.00 0.00 0.00 0.00 0.00 0.00 0.00 0.00 0.00 0.00 0.00 0.00
0.00 0.00 0.00 0.00 0.00 0.00 0.00 0.00 0.00 0.00 0.00 0.00 0.00 0.00 0.00 0.00 0.00 0.00 0.00 0.00 0.00 0.00 0.00 0.00 0.00 0.00 0.00 0.00 0.00 0.00 0.00 0.00 0.00 0.00 0.00 0.00 0.00 0.00 0.00 0.00 0.00 0.00 0.00 0.00 0.00
0.00 0.00 0.00 0.00 0.00 0.00 0.00 0.00 0.00 0.00 0.00 0.00 0.00 0.00 0.00 0.00 0.00 0.00 0.00 0.00 0.00 0.00 0.00 0.00 0.00 0.00 0.00 0.00 0.00 0.00 0.00 0.00 0.00 0.00 0.00 0.00 0.00 0.00 0.00 0.00 0.00 0.00 0.00 0.00 0.00
0.00 0.00 0.00 0.00 0.00 0.00 0.00 0.00 0.00 0.00 0.00 0.00 0.00 0.00 0.00 0.00 0.00 0.00 0.00 0.00 0.00 0.00 0.00 0.00 0.00 0.00 0.00 0.00 0.00 0.00 0.00 0.00 0.00 0.00 0.00 0.00 0.00 0.00 0.00 0.00 0.00 0.00 0.00 0.00 0.00
0.00 0.00 0.00 0.00 0.00 0.00 0.00 0.00 0.00 0.00 0.00 0.00 0.00 0.00 0.00 0.00 0.00 0.00 0.00 0.00 0.00 0.00 0.00 0.00 0.00 0.00 0.00 0.00 0.00 0.00 0.00 0.00 0.00 0.00 0.00 0.00 0.00 0.00 0.00 0.00 0.00 0.00 0.00 0.00 0.00
0.00 0.00 0.00 0.00 0.00 0.00 0.00 0.00 0.00 0.00 0.00 0.00 0.00 0.00 0.00 0.00 0.00 0.00 0.00 0.00 0.00 0.00 0.00 0.00 0.00 0.00 0.00 0.00 0.00 0.00 0.00 0.00 0.00 0.00 0.00 0.00 0.00 0.00 0.00 0.00 0.00 0.00 0.00 0.00 0.00
0.00 0.00 0.00 0.00 0.00 0.00 0.00 0.00 0.00 0.00 0.00 0.00 0.00 0.00 0.00 0.00 0.00 0.00 0.00 0.00 0.00 0.00 0.00 0.00 0.00 0.00 0.00 0.00 0.00 0.00 0.00 0.00 0.00 0.00 0.00 0.00 0.00 0.00 0.00 0.00 0.00 0.00 0.00 0.00 0.00
0.00 0.00 0.00 0.00 0.00 0.00 0.00 0.00 0.00 0.00 0.00 0.00 0.00 0.00 0.00 0.00 0.00 0.00 0.00 0.00 0.00 0.00 0.00 0.00 0.00 0.00 0.00 0.00 0.00 0.00 0.00 0.00 0.00 0.00 0.00 0.00 0.00 0.00 0.00 0.00 0.00 0.00 0.00 0.00 0.00
0.00 0.00 0.00 0.00 0.00 0.00 0.00 0.00 0.00 0.00 0.00 0.00 0.00 0.00 0.00 0.00 0.00 0.00 0.00 0.00 0.00 0.00 0.00 0.00 0.00 0.00 0.00 0.00 0.00 0.00 0.00 0.00 0.00 0.00 0.00 0.00 0.00 0.00 0.00 0.00 0.00 0.00 0.00 0.00 0.00
0.00 0.00 0.00 0.00 0.00 0.00 0.00 0.00 0.00 0.00 0.00 0.00 0.00 0.00 0.00 0.00 0.00 0.00 0.00 0.00 0.00 0.00 0.00 0.00 0.00 0.00 0.00 0.00 0.00 0.00 0.00 0.00 0.00 0.00 0.00 0.00 0.00 0.00 0.00 0.00 0.00 0.00 0.00 0.00 0.00
0.00 0.00 0.00 0.00 0.00 0.00 0.00 0.00 0.00 0.00 0.00 0.00 0.00 0.00 0.00 0.00 0.00 0.00 0.00 0.00 0.00 0.00 0.00 0.00 0.00 0.00 0.00 0.00 0.00 0.00 0.00 0.00 0.00 0.00 0.00 0.00 0.00 0.00 0.00 0.00 0.00 0.00 0.00 0.00 0.00
0.00 0.00 0.00 0.00 0.00 0.00 0.00 0.00 0.00 0.00 0.00 0.00 0.00 0.00 0.00 0.00 0.00 0.00 0.00 0.00 0.00 0.00 0.00 0.00 0.00 0.00 0.00 0.00 0.00 0.00 0.00 0.00 0.00 0.00 0.00 0.00 0.00 0.00 0.00 0.00 0.00 0.00 0.00 0.00 0.00
0.00 0.00 0.00 0.00 0.00 0.00 0.00 0.00 0.00 0.00 0.00 0.00 0.00 0.00 0.00 0.00 0.00 0.00 0.00 0.00 0.00 0.00 0.00 0.00 0.00 0.00 0.00 0.00 0.00 0.00 0.00 0.00 0.00 0.00 0.00 0.00 0.00 0.00 0.00 0.00 0.00 0.00 0.00 0.00 0.00
0.00 0.00 0.00 0.00 0.00 0.00 0.00 0.00 0.00 0.00 0.00 0.00 0.00 0.00 0.00 0.00 0.00 0.00 0.00 0.00 0.00 0.00 0.00 0.00 0.00 0.00 0.00 0.00 0.00 0.00 0.00 0.00 0.00 0.00 0.00 0.00 0.00 0.00 0.00 0.00 0.00 0.00 0.00 0.00 0.00
0.00 0.00 0.00 0.00 0.00 0.00 0.00 0.00 0.00 0.00 0.00 0.00 0.00 0.00 0.00 0.00 0.00 0.00 0.00 0.00 0.00 0.00 0.00 0.00 0.00 0.00 0.00 0.00 0.00 0.00 0.00 0.00 0.00 0.00 0.00 0.00 0.00 0.00 0.00 0.00 0.00 0.00 0.00 0.00 0.00
0.00 0.00 0.00 0.00 0.00 0.00 0.00 0.00 0.00 0.00 0.00 0.00 0.00 0.00 0.00 0.00 0.00 0.00 0.00 0.00 0.00 0.00 0.00 0.00 0.00 0.00 0.00 0.00 0.00 0.00 0.00 0.00 0.00 0.00 0.00 0.00 0.00 0.00 0.00 0.00 0.00 0.00 0.00 0.00 0.00
0.00 0.00 0.00 0.00 0.00 0.00 0.00 0.00 0.00 0.00 0.00 0.00 0.00 0.00 0.00 0.00 0.00 0.00 0.00 0.00 0.00 0.00 0.00 0.00 0.00 0.00 0.00 0.00 0.00 0.00 0.00 0.00 0.00 0.00 0.00 0.00 0.00 0.00 0.00 0.00 0.00 0.00 0.00 0.00 0.00
0.00 0.00 0.00 0.00 0.00 0.00 0.00 0.00 0.00 0.00 0.00 0.00 0.00 0.00 0.00 0.00 0.00 0.00 0.00 0.00 0.00 0.00 0.00 0.00 0.00 0.00 0.00 0.00 0.00 0.00 0.00 0.00 0.00 0.00 0.00 0.00 0.00 0.00 0.00 0.00 0.00 0.00 0.00 0.00 0.00
0.00 0.00 0.00 0.00 0.00 0.00 0.00 0.00 0.00 0.00 0.00 0.00 0.00 0.00 0.00 0.00 0.00 0.00 0.00 0.00 0.00 0.00 0.00 0.00 0.00 0.00 0.00 0.00 0.00 0.00 0.00 0.00 0.00 0.00 0.00 0.00 0.00 0.00 0.00 0.00 0.00 0.00 0.00 0.00 0.00
0.00 0.00 0.00 0.00 0.00 0.00 0.00 0.00 0.00 0.00 0.00 0.00 0.00 0.00 0.00 0.00 0.00 0.00 0.00 0.00 0.00 0.00 0.00 0.00 0.00 0.00 0.00 0.00 0.00 0.00 0.00 0.00 0.00 0.00 0.00 0.00 0.00 0.00 0.00 0.00 0.00 0.00 0.00 0.00 0.00
0.00 0.00 0.00 0.00 0.00 0.00 0.00 0.00 0.00 0.00 0.00 0.00 0.00 0.00 0.00 0.00 0.00 0.00 0.00 0.00 0.00 0.00 0.00 0.00 0.00 0.00 0.00 0.00 0.00 0.00 0.00 0.00 0.00 0.00 0.00 0.00 0.00 0.00 0.00 0.00 0.00 0.00 0.00 0.00 0.00
0.00 0.00 0.00 0.00 0.00 0.00 0.00 0.00 0.00 0.00 0.00 0.00 0.00 0.00 0.00 0.00 0.00 0.00 0.00 0.00 0.00 0.00 0.00 0.00 0.00 0.00 0.00 0.00 0.00 0.00 0.00 0.00 0.00 0.00 0.00 0.00 0.00 0.00 0.00 0.00 0.00 0.00 0.00 0.00 0.00
0.00 0.00 0.00 0.00 0.00 0.00 0.00 0.00 0.00 0.00 0.00 0.00 0.00 0.00 0.00 0.00 0.00 0.00 0.00 0.00 0.00 0.00 0.00 0.00 0.00 0.00 0.00 0.00 0.00 0.00 0.00 0.00 0.00 0.00 0.00 0.00 0.00 0.00 0.00 0.00 0.00 0.00 0.00 0.00 0.00
MSLP
1017.31 1017.15 1016.99 1016.83 1016.73 1016.64 1016.47 1016.27 1016.07 1015.87 1015.63 1015.30 1014.98 1014.74 1014.43 1014.04 1013.46 1013.02 1010.76 1010.88 1010.47 1010.80 1010.85 1009.13 1008.26 1007.53 1006.91 1005.79 1005.33 1004.71 1003.22 1001.44 1000.99 1001.08 1001.27 1003.05 1002.94 1003.66 1004.93 1005.14 1005.34 1006.05 1006.48 1007.99 1009.19
1017.22 1017.03 1016.87 1016.73 1016.62 1016.53 1016.37 1016.18 1015.99 1015.80 1015.51 1015.14 1014.80 1014.49 1014.22 1013.99 1012.56 1010.08 1010.71 1010.61 1010.75 1010.88 1009.92 1008.05 1007.09 1006.65 1005.81 1005.00 1004.65 1004.16 1002.96 1001.29 1001.26 1001.35 1001.54 1002.40 1002.53 1003.50 1004.57 1005.03 1005.68 1006.87 1007.73 1008.60 1009.00
1017.27 1017.03 1016.88 1016.73 1016.58 1016.44 1016.28 1016.10 1015.86 1015.58 1015.27 1014.94 1014.58 1014.23 1013.93 1013.65 1011.49 1009.39 1010.57 1010.66 1010.77 1010.77 1009.47 1008.09 1006.98 1006.04 1004.80 1004.28 1004.15 1003.84 1002.80 1001.81 1002.47 1002.87 1002.73 1002.30 1002.78 1003.52 1004.24 1004.84 1005.13 1005.99 1007.74 1008.52 1008.90
1017.24 1016.99 1016.79 1016.64 1016.47 1016.30 1016.13 1015.92 1015.64 1015.35 1015.05 1014.70 1014.27 1013.89 1013.60 1012.59 1009.40 1009.38 1010.40 1010.51 1010.62 1010.26 1008.55 1007.15 1006.56 1005.55 1004.20 1003.88 1003.63 1003.45 1003.17 1003.11 1003.31 1003.72 1003.18 1003.02 1003.46 1004.37 1004.77 1005.85 1006.15 1006.15 1007.55 1008.33 1008.73
1017.11 1016.89 1016.69 1016.51 1016.31 1016.08 1015.88 1015.68 1015.45 1015.18 1014.85 1014.49 1014.09 1013.84 1012.84 1010.48 1008.31 1009.49 1010.08 1010.12 1009.76 1008.81 1007.32 1006.30 1005.52 1004.75 1003.88 1003.47 1003.87 1003.68 1003.62 1004.08 1004.28 1004.21 1003.89 1003.95 1004.31 1004.84 1005.88 1006.98 1006.94 1007.32 1008.02 1008.43 1008.86
1017.06 1016.85 1016.60 1016.35 1016.09 1015.85 1015.65 1015.46 1015.25 1014.96 1014.59 1014.18 1013.80 1013.74 1012.30 1008.87 1008.25 1008.86 1008.94 1008.84 1008.45 1007.57 1006.67 1005.96 1005.24 1004.78 1003.91 1003.89 1003.85 1003.50 1003.97 1004.38 1004.59 1004.45 1004.92 1004.96 1004.90 1005.90 1006.62 1007.44 1007.42 1008.01 1008.17 1008.66 1009.38
1017.01 1016.73 1016.43 1016.16 1015.89 1015.63 1015.38 1015.15 1014.89 1014.57 1014.24 1013.90 1013.64 1013.14 1010.22 1008.29 1008.26 1008.44 1008.46 1007.97 1008.03 1007.57 1006.59 1006.52 1006.18 1005.53 1004.41 1004.26 1004.42 1004.26 1004.41 1004.61 1004.78 1004.99 1005.16 1005.40 1005.46 1006.31 1007.21 1007.54 1007.46 1007.95 1008.52 1009.08 1009.87
1016.89 1016.58 1016.24 1015.95 1015.66 1015.39 1015.12 1014.81 1014.51 1014.20 1013.88 1013.54 1013.41 1012.20 1008.85 1008.39 1008.26 1008.39 1007.88 1007.70 1007.82 1007.57 1007.37 1007.05 1006.53 1005.49 1004.82 1004.62 1004.83 1004.40 1004.35 1003.73 1003.99 1005.04 1005.46 1005.98 1004.87 1005.98 1007.46 1007.48 1007.50 1007.86 1008.48 1009.34 1009.92
1016.77 1016.39 1016.09 1015.83 1015.53 1015.16 1014.78 1014.42 1014.03 1013.72 1013.57 1013.27 1012.68 1010.67 1008.13 1009.05 1008.41 1007.96 1008.04 1007.50 1007.42 1007.40 1007.30 1007.47 1006.75 1005.52 1005.20 1004.81 1004.27 1004.24 1003.48 1003.46 1003.83 1004.90 1005.09 1006.08 1005.17 1006.83 1007.67 1007.66 1007.55 1007.81 1008.47 1009.33 1010.16
1016.68 1016.24 1015.91 1015.62 1015.29 1014.87 1014.45 1014.22 1013.76 1013.55 1013.08 1011.86 1010.69 1009.80 1008.19 1007.59 1007.88 1008.20 1007.95 1008.03 1007.40 1007.10 1007.00 1006.96 1006.22 1005.50 1004.82 1004.11 1002.91 1002.47 1002.63 1002.94 1003.20 1004.58 1005.41 1005.28 1005.53 1006.55 1007.58 1007.66 1007.45 1007.59 1008.21 1009.20 1010.45
1016.49 1016.01 1015.60 1015.22 1014.88 1014.56 1013.80 1013.18 1013.09 1011.93 1010.61 1009.17 1008.56 1008.27 1007.85 1007.81 1008.12 1007.72 1007.73 1007.45 1007.10 1006.83 1006.02 1005.73 1005.23 1004.37 1003.91 1003.57 1003.47 1003.42 1003.33 1003.05 1003.75 1005.42 1005.68 1005.08 1005.38 1006.09 1007.48 1007.63 1007.28 1007.37 1008.03 1009.10 1010.60
1016.35 1015.81 1015.34 1014.93 1014.47 1014.20 1013.90 1010.95 1011.13 1010.84 1009.24 1008.90 1008.81 1008.47 1008.27 1007.90 1007.28 1007.35 1007.60 1006.95 1006.51 1005.69 1005.65 1005.49 1004.49 1004.05 1004.52 1004.44 1004.28 1004.39 1003.99 1003.79 1004.70 1005.91 1006.43 1005.59 1005.99 1006.00 1007.52 1007.50 1007.54 1007.79 1008.30 1009.07 1010.58
1016.23 1015.66 1015.16 1014.77 1014.29 1013.66 1011.64 1011.38 1010.83 1010.65 1009.24 1008.39 1008.14 1007.74 1007.71 1007.75 1007.10 1006.97 1007.14 1006.66 1006.19 1005.69 1005.20 1004.81 1004.67 1005.31 1005.41 1005.05 1004.80 1004.48 1004.24 1004.19 1005.10 1006.02 1006.48 1005.97 1005.49 1005.32 1007.13 1007.96 1008.09 1008.47 1008.87 1009.55 1010.64
1016.11 1015.52 1014.98 1014.64 1014.28 1011.28 1010.70 1010.85 1010.37 1010.58 1008.43 1007.98 1007.64 1007.44 1007.74 1007.41 1007.24 1007.54 1007.30 1006.95 1006.21 1005.69 1005.80 1004.98 1005.49 1005.91 1005.65 1005.13 1005.29 1004.76 1004.96 1005.88 1006.08 1006.26 1005.49 1005.46 1004.72 1004.63 1006.00 1007.49 1008.10 1008.59 1009.23 1009.90 1010.96
1015.99 1015.38 1014.83 1014.77 1012.62 1010.43 1011.06 1010.60 1010.40 1010.64 1007.42 1007.29 1006.87 1007.13 1007.04 1006.81 1006.86 1007.24 1007.45 1006.76 1006.33 1006.11 1006.65 1005.64 1006.03 1006.18 1005.87 1005.65 1006.20 1005.91 1006.74 1006.58 1006.53 1006.30 1005.94 1005.11 1004.78 1004.27 1005.55 1006.64 1007.81 1008.64 1009.42 1010.05 1010.83
1015.96 1015.30 1014.85 1013.44 1011.95 1010.97 1010.69 1010.72 1010.75 1009.38 1006.63 1006.84 1006.72 1006.63 1006.74 1006.80 1006.84 1006.96 1007.12 1007.32 1007.22 1006.85 1006.74 1006.31 1007.06 1006.90 1006.45 1006.95 1007.21 1007.26 1007.25 1006.87 1006.64 1006.01 1005.11 1004.26 1004.11 1003.90 1004.44 1006.15 1006.96 1008.54 1009.64 1010.29 1011.34
1015.92 1015.30 1014.72 1012.66 1011.01 1010.95 1010.71 1010.20 1009.15 1007.19 1007.03 1006.67 1006.41 1006.67 1006.21 1006.38 1006.88 1007.08 1006.90 1007.01 1006.85 1006.72 1006.08 1006.37 1006.47 1007.12 1007.75 1007.28 1007.35 1007.59 1007.39 1006.30 1005.38 1005.20 1005.54 1005.47 1005.35 1004.84 1005.84 1006.86 1007.37 1007.94 1009.36 1010.39 1011.65
1015.82 1015.24 1013.55 1012.04 1011.56 1011.27 1010.65 1009.60 1008.14 1006.99 1006.79 1007.36 1007.17 1006.94 1006.64 1007.03 1007.19 1007.48 1007.44 1007.02 1007.26 1007.70 1007.06 1006.46 1006.43 1007.37 1007.88 1007.66 1007.21 1007.18 1007.62 1007.05 1006.25 1005.64 1005.20 1005.51 1005.10 1005.77 1007.09 1008.11 1008.35 1009.10 1009.34 1010.35 1011.47
1015.34 1013.67 1011.83 1011.74 1011.82 1011.59 1010.41 1008.50 1007.17 1007.48 1007.87 1007.71 1007.30 1007.02 1006.64 1007.47 1007.95 1007.62 1007.42 1007.56 1007.96 1008.48 1008.43 1007.33 1006.95 1007.98 1008.24 1008.47 1008.53 1007.71 1007.97 1007.97 1008.13 1007.97 1006.91 1005.73 1005.40 1006.77 1007.90 1009.06 1009.82 1010.32 1010.79 1011.10 1011.92
1014.96 1012.41 1011.07 1011.75 1011.78 1011.21 1009.81 1008.57 1008.31 1008.96 1008.97 1008.50 1007.66 1007.65 1007.04 1007.04 1007.94 1007.43 1007.61 1008.58 1009.09 1009.94 1009.74 1008.67 1008.22 1007.91 1008.56 1009.20 1008.93 1008.80 1008.81 1008.77 1008.29 1008.02 1007.34 1006.29 1006.50 1007.40 1008.66 1009.47 1010.20 1010.73 1011.26 1011.62 1011.98
1014.94 1011.88 1011.54 1011.44 1011.34 1010.44 1008.99 1008.45 1009.16 1009.63 1009.60 1009.18 1008.37 1008.40 1008.36 1008.39 1008.69 1008.43 1008.60 1009.59 1010.44 1010.53 1010.52 1009.81 1009.44 1008.67 1009.11 1008.74 1008.43 1008.75 1008.66 1009.25 1009.63 1010.05 1009.04 1008.47 1008.01 1009.84 1010.47 1011.11 1011.50 1011.62 1011.90 1012.74 1013.04
1014.37 1011.68 1011.65 1011.41 1010.75 1009.65 1008.97 1009.89 1011.07 1010.06 1010.03 1009.70 1009.76 1009.37 1009.34 1009.37 1009.54 1009.25 1009.49 1010.21 1011.84 1011.77 1011.10 1010.97 1010.65 1009.30 1008.87 1010.07 1009.98 1009.90 1009.90 1009.99 1010.26 1010.40 1009.90 1009.85 1009.96 1010.61 1011.49 1011.78 1012.30 1012.66 1012.77 1013.01 1013.49
1014.65 1012.40 1011.65 1011.68 1010.38 1009.65 1010.40 1010.51 1010.75 1010.53 1010.17 1010.11 1009.93 1010.18 1010.11 1010.23 1010.51 1010.11 1010.46 1011.80 1012.57 1012.30 1012.47 1012.50 1011.41 1010.41 1009.32 1009.78 1010.54 1010.30 1010.02 1010.83 1011.27 1011.85 1011.41 1010.90 1010.20 1011.16 1011.65 1012.27 1012.81 1013.28 1013.40 1013.50 1013.67
1015.38 1012.53 1011.68 1011.68 1011.86 1011.67 1011.21 1010.75 1010.79 1011.34 1011.03 1011.08 1010.69 1010.80 1010.65 1010.61 1010.73 1010.94 1010.91 1012.07 1013.15 1013.35 1014.13 1013.76 1012.70 1011.62 1010.51 1009.60 1010.31 1010.48 1010.39 1010.88 1011.57 1011.91 1011.45 1010.61 1010.54 1010.72 1011.39 1012.60 1013.35 1013.67 1013.96 1013.87 1013.91
1015.51 1014.19 1014.54 1011.97 1012.26 1012.86 1012.64 1012.03 1011.37 1011.20 1011.62 1011.55 1011.04 1011.08 1010.90 1010.84 1010.65 1010.71 1010.93 1011.71 1012.80 1013.90 1013.96 1013.71 1012.81 1012.02 1011.07 1010.78 1010.96 1010.97 1010.81 1010.84 1011.07 1011.47 1011.58 1011.40 1011.37 1011.78 1012.61 1013.36 1013.81 1014.03 1014.28 1014.37 1014.38
1016.61 1015.54 1014.64 1013.78 1013.98 1013.37 1013.25 1012.33 1012.16 1011.78 1012.31 1011.68 1011.72 1011.54 1011.52 1011.55 1011.40 1011.33 1011.52 1012.05 1012.42 1013.01 1013.55 1013.63 1013.42 1012.83 1012.17 1011.56 1010.97 1011.14 1011.10 1011.10 1011.18 1011.50 1011.90 1012.20 1012.33 1013.53 1013.99 1014.12 1014.34 1014.58 1014.87 1014.95 1015.36
1017.42 1016.91 1016.22 1014.53 1013.68 1013.64 1012.80 1012.96 1013.13 1013.45 1012.90 1012.84 1012.93 1012.79 1012.16 1012.23 1012.26 1012.62 1012.95 1013.21 1013.46 1013.77 1013.68 1013.70 1013.75 1013.28 1012.55 1012.02 1011.96 1011.58 1010.95 1010.77 1011.25 1012.01 1012.55 1012.70 1013.18 1013.57 1014.00 1014.65 1015.08 1015.28 1015.74 1016.26 1016.74
Thickness
5724 5725 5727 5730 5733 5735 5738 5742 5745 5748 5752 5756 5759 5762 5766 5771 5777 5782 5791 5795 5799 5797 5798 5808 5809 5811 5814 5809 5817 5823 5798 5806 5821 5822 5829 5822 5819 5834 5828 5811 5812 5810 5804 5800 5800
5725 5726 5728 5731 5734 5736 5739 5742 5745 5748 5752 5756 5760 5764 5767 5770 5783 5797 5795 5796 5795 5795 5800 5805 5802 5809 5803 5808 5812 5802 5798 5819 5837 5838 5830 5826 5829 5820 5810 5802 5797 5793 5799 5799 5798
5724 5727 5728 5731 5734 5736 5739 5742 5746 5749 5753 5757 5761 5766 5769 5771 5779 5792 5794 5794 5794 5795 5803 5809 5812 5810 5803 5814 5809 5806 5797 5831 5820 5824 5827 5828 5825 5823 5809 5794 5802 5791 5787 5791 5789
5724 5727 5729 5732 5734 5737 5740 5743 5747 5750 5754 5758 5763 5767 5770 5778 5765 5798 5794 5794 5794 5796 5806 5808 5805 5797 5801 5797 5816 5796 5813 5814 5812 5813 5817 5814 5822 5803 5805 5792 5805 5806 5796 5791 5786
5725 5728 5731 5733 5736 5739 5742 5745 5748 5751 5755 5759 5763 5766 5777 5778 5788 5799 5795 5796 5798 5804 5805 5805 5801 5803 5797 5809 5807 5799 5804 5806 5808 5809 5811 5813 5801 5796 5789 5793 5801 5797 5790 5786 5783
5726 5728 5732 5735 5738 5741 5744 5746 5749 5752 5756 5760 5764 5765 5772 5769 5807 5802 5802 5802 5803 5806 5807 5811 5806 5813 5808 5802 5799 5809 5802 5798 5801 5801 5799 5792 5794 5789 5784 5789 5786 5782 5780 5779 5774
5726 5729 5733 5736 5739 5742 5745 5748 5751 5755 5758 5761 5763 5768 5778 5782 5805 5804 5804 5804 5806 5805 5800 5808 5810 5800 5809 5793 5807 5801 5782 5788 5790 5791 5785 5794 5773 5769 5779 5781 5777 5774 5772 5771 5767
5726 5730 5734 5737 5740 5743 5747 5750 5754 5757 5760 5763 5764 5770 5774 5802 5804 5800 5806 5802 5807 5808 5803 5808 5810 5804 5800 5805 5792 5782 5784 5770 5791 5785 5783 5779 5764 5771 5776 5773 5769 5770 5767 5763 5762
5727 5731 5734 5737 5741 5745 5749 5753 5757 5760 5761 5763 5768 5775 5772 5797 5787 5801 5802 5792 5799 5801 5802 5801 5799 5792 5792 5775 5770 5775 5765 5772 5775 5786 5781 5767 5768 5762 5771 5768 5765 5766 5763 5758 5754
5728 5732 5736 5738 5742 5746 5750 5753 5757 5759 5763 5770 5778 5763 5783 5779 5790 5792 5800 5794 5786 5788 5782 5781 5781 5772 5778 5775 5760 5781 5777 5784 5780 5774 5772 5767 5766 5762 5763 5763 5763 5765 5760 5754 5744
5730 5734 5738 5741 5744 5748 5753 5761 5755 5756 5769 5768 5772 5770 5778 5791 5794 5787 5793 5787 5786 5778 5762 5778 5764 5760 5774 5787 5787 5781 5777 5778 5781 5765 5760 5766 5764 5760 5758 5757 5759 5761 5756 5748 5737
5731 5735 5740 5743 5747 5750 5752 5765 5761 5765 5756 5775 5773 5773 5781 5787 5770 5779 5791 5771 5770 5761 5772 5764 5758 5780 5779 5777 5772 5766 5764 5768 5764 5757 5750 5757 5746 5758 5749 5750 5754 5751 5748 5743 5732
5731 5736 5740 5744 5748 5753 5766 5760 5772 5772 5753 5763 5774 5772 5773 5779 5767 5769 5780 5774 5764 5759 5765 5758 5766 5769 5762 5761 5756 5761 5760 5764 5750 5746 5749 5747 5740 5754 5745 5743 5744 5744 5743 5737 5726
5730 5735 5740 5743 5743 5769 5762 5770 5774 5771 5744 5746 5758 5768 5772 5775 5757 5778 5781 5769 5763 5754 5757 5763 5764 5753 5753 5753 5755 5748 5764 5747 5739 5731 5724 5750 5719 5754 5743 5732 5732 5732 5730 5726 5718
5728 5734 5739 5741 5755 5762 5761 5770 5772 5760 5720 5758 5762 5788 5778 5763 5765 5762 5779 5769 5749 5751 5748 5746 5744 5741 5740 5747 5747 5741 5743 5738 5736 5729 5729 5741 5728 5749 5744 5726 5722 5723 5721 5718 5714
5725 5732 5736 5745 5757 5763 5767 5767 5759 5729 5718 5746 5763 5756 5754 5760 5759 5764 5760 5767 5762 5746 5748 5746 5752 5744 5744 5741 5738 5740 5731 5733 5735 5733 5714 5742 5742 5747 5742 5727 5726 5719 5713 5709 5700
5723 5729 5735 5746 5748 5761 5764 5754 5726 5725 5758 5743 5748 5754 5756 5747 5745 5747 5743 5737 5731 5719 5730 5738 5737 5740 5736 5724 5733 5726 5715 5705 5710 5708 5695 5727 5719 5736 5734 5725 5728 5715 5705 5699 5690
5720 5726 5738 5747 5752 5755 5753 5735 5709 5742 5744 5752 5748 5749 5738 5741 5739 5736 5732 5729 5739 5729 5725 5721 5710 5722 5729 5722 5719 5722 5712 5701 5682 5700 5718 5727 5710 5717 5722 5718 5718 5710 5705 5691 5678
5720 5733 5743 5746 5747 5749 5736 5720 5734 5737 5741 5736 5743 5732 5735 5735 5729 5730 5730 5726 5729 5726 5703 5713 5716 5725 5723 5722 5718 5713 5699 5717 5691 5701 5698 5726 5732 5720 5709 5696 5693 5688 5684 5677 5667
5717 5732 5739 5742 5743 5740 5727 5715 5730 5734 5733 5734 5720 5730 5724 5732 5720 5729 5726 5721 5714 5714 5718 5712 5693 5720 5714 5713 5715 5705 5712 5684 5699 5669 5672 5712 5712 5689 5680 5678 5678 5673 5666 5664 5659
5712 5719 5733 5739 5740 5728 5717 5726 5726 5730 5729 5720 5721 5716 5719 5714 5714 5714 5713 5709 5708 5705 5709 5708 5698 5703 5704 5698 5700 5698 5696 5691 5684 5674 5662 5664 5689 5681 5668 5664 5661 5662 5656 5646 5641
5704 5700 5730 5733 5710 5724 5719 5718 5699 5718 5723 5719 5717 5714 5708 5708 5700 5704 5699 5700 5695 5695 5689 5695 5687 5684 5693 5694 5698 5692 5683 5682 5658 5654 5674 5664 5659 5673 5662 5660 5653 5647 5643 5638 5632
5687 5698 5722 5718 5695 5706 5707 5706 5708 5707 5709 5708 5705 5707 5708 5696 5681 5696 5695 5692 5686 5687 5679 5680 5675 5663 5679 5685 5682 5673 5683 5674 5664 5653 5641 5638 5657 5663 5653 5647 5645 5634 5631 5627 5621
5676 5679 5697 5701 5697 5685 5687 5693 5692 5700 5698 5699 5699 5700 5694 5688 5693 5680 5685 5682 5677 5677 5659 5664 5665 5661 5657 5676 5673 5661 5668 5665 5652 5631 5640 5655 5656 5660 5647 5631 5626 5622 5616 5615 5608
5668 5662 5661 5675 5676 5671 5675 5680 5680 5680 5690 5692 5689 5688 5685 5676 5682 5680 5686 5681 5675 5658 5664 5662 5651 5663 5672 5673 5666 5659 5658 5659 5649 5646 5632 5643 5641 5641 5632 5624 5620 5617 5609 5603 5595
5641 5647 5659 5661 5658 5662 5653 5670 5669 5675 5673 5675 5674 5681 5682 5670 5674 5668 5674 5671 5665 5668 5660 5660 5641 5651 5647 5661 5663 5648 5653 5652 5649 5645 5639 5635 5629 5626 5619 5616 5610 5602 5596 5588 5575
5635 5639 5638 5639 5654 5651 5659 5659 5657 5658 5667 5669 5664 5663 5667 5668 5674 5671 5668 5663 5659 5649 5648 5646 5639 5637 5631 5651 5644 5632 5649 5652 5646 5640 5631 5617 5621 5622 5612 5603 5596 5587 5579 5566 5555